Stations météo

réclame
Mon MeteoGroup
Isle Of Portland, Grande-Bretagne (3857): Température de l'air & dewpoint: 10.08.2018 20:00:00 - 16.08.2018 20:00:00 (BST)Isle Of Portland, Grande-Bretagne (3857): Vitesse du vent & gusts: 10.08.2018 20:00:00 - 16.08.2018 20:00:00 (BST)Isle Of Portland, Grande-Bretagne (3857): Direction du vent: 10.08.2018 20:00:00 - 16.08.2018 20:00:00 (BST)Isle Of Portland, Grande-Bretagne (3857): reduced air pressure: 10.08.2018 20:00:00 - 16.08.2018 20:00:00 (BST)Isle Of Portland, Grande-Bretagne (3857): visibility: 10.08.2018 20:00:00 - 16.08.2018 20:00:00 (BST)Isle Of Portland, Grande-Bretagne (3857): Quantités de précipitations: 10.08.2018 20:00:00 - 16.08.2018 20:00:00 (BST)
Date & Time tt [°C] td [°C] ff [km/h] ff [knt] fx [km/h] fx [knt] dd ppp [hPa] vv [km] rr [mm]
16.08.2018 20:00:00 17,7 11,0 18 10 - - WNW 1016,2 35 0,0
16.08.2018 19:00:00 18,5 11,7 28 15 - - WNW 1015,6 40 0,0
16.08.2018 18:00:00 19,2 15,1 21 11 - - WSW 1015,5 17 0,0
16.08.2018 17:00:00 18,1 14,9 26 14 - - WSW 1015,3 20 0,0
16.08.2018 16:00:00 18,8 14,8 24 13 - - WSW 1015,0 25 0,0
16.08.2018 15:00:00 18,1 14,3 21 11 - - WSW 1015,1 18 0,0
16.08.2018 14:00:00 18,6 14,0 15 8 - - W 1015,0 18 0,0
16.08.2018 13:00:00 16,8 14,0 15 8 - - W 1014,7 18 0,0
16.08.2018 12:00:00 15,5 14,0 15 8 - - W 1014,6 28 0,6
16.08.2018 11:00:00 14,5 13,6 24 13 50 27 NW 1014,4 4,5 3,6
16.08.2018 10:00:00 16,5 16,3 34 18 - - WSW 1013,9 5 1,8
16.08.2018 09:00:00 16,5 16,2 29 16 50 27 WSW 1013,7 10 0,4
16.08.2018 08:00:00 16,7 16,6 37 20 48 26 SW 1013,6 3,3 1,4
16.08.2018 07:00:00 16,7 16,4 37 20 50 27 SW 1013,6 7 0,0
16.08.2018 06:00:00 16,8 16,3 39 21 52 28 SW 1013,8 3,0 0,0
16.08.2018 05:00:00 17,1 16,3 34 18 46 25 SW 1014,0 15 0,0
16.08.2018 04:00:00 17,1 16,5 34 18 - - SW 1014,7 13 0,0
16.08.2018 03:00:00 17,1 16,3 34 18 - - SW 1015,4 16 0,0
16.08.2018 02:00:00 16,9 16,5 34 18 - - SW 1015,7 7 0,0
16.08.2018 01:00:00 17,1 16,5 34 18 - - SW 1016,3 13 0,0
16.08.2018 00:00:00 17,4 15,9 31 17 - - WSW 1016,8 18 0,0
15.08.2018 23:00:00 17,5 16,3 35 19 - - WSW 1017,0 11 0,0
15.08.2018 22:00:00 17,4 16,5 31 17 - - SW 1017,5 12 0,0
15.08.2018 21:00:00 17,5 16,5 31 17 - - WSW 1017,6 14 0,0
15.08.2018 20:00:00 17,5 16,5 28 15 - - WSW 1017,7 15 0,0
15.08.2018 19:00:00 17,8 16,5 31 17 - - SW 1017,7 16 0,0
15.08.2018 18:00:00 18,8 16,4 31 17 - - SW 1018,0 21 0,0
15.08.2018 17:00:00 19,5 16,5 31 17 - - SW 1018,6 35 0,0
15.08.2018 16:00:00 18,9 16,6 31 17 - - SW 1018,9 19 0,0
15.08.2018 15:00:00 18,9 16,5 29 16 - - WSW 1019,3 22 0,0
15.08.2018 14:00:00 19,3 17,0 24 13 - - WSW 1019,8 21 0,0
15.08.2018 13:00:00 18,8 16,6 22 12 - - SW 1020,0 18 0,0
15.08.2018 12:00:00 18,2 16,5 24 13 - - WSW 1020,2 17 0,0
15.08.2018 11:00:00 18,2 16,5 31 17 - - WSW 1020,2 19 0,0
15.08.2018 10:00:00 18,0 15,5 28 15 - - WSW 1020,0 30 0,0
15.08.2018 09:00:00 17,8 16,1 22 12 - - WSW 1019,9 24 0,0
15.08.2018 08:00:00 17,3 15,7 26 14 - - WSW 1019,8 19 0,0
15.08.2018 07:00:00 17,2 15,6 26 14 - - WSW 1019,7 18 0,0
15.08.2018 06:00:00 17,4 14,9 24 13 - - W 1019,3 25 0,0
15.08.2018 05:00:00 17,3 13,5 24 13 - - W 1019,5 40 0,0
15.08.2018 04:00:00 17,3 14,6 26 14 - - W 1019,6 29 0,0
15.08.2018 03:00:00 17,3 14,8 28 15 - - W 1019,6 27 0,0
15.08.2018 02:00:00 17,4 15,0 28 15 - - W 1019,4 21 0,0
15.08.2018 01:00:00 17,6 15,3 21 11 - - W 1019,9 19 0,0
15.08.2018 00:00:00 17,7 14,9 24 13 - - WNW 1019,8 20 0,0
14.08.2018 23:00:00 17,9 15,7 22 12 - - W 1020,1 20 0,0
14.08.2018 22:00:00 18,2 14,7 28 15 - - WNW 1019,9 29 0,0
14.08.2018 21:00:00 18,4 15,4 26 14 - - NW 1019,5 29 0,0
14.08.2018 20:00:00 18,3 16,3 28 15 - - W 1018,8 17 0,0
14.08.2018 19:00:00 18,7 16,2 26 14 - - WSW 1018,6 14 0,0
14.08.2018 18:00:00 19,7 17,1 24 13 - - WSW 1018,8 21 0,0
14.08.2018 17:00:00 19,5 16,9 28 15 - - WSW 1018,9 19 0,0
14.08.2018 16:00:00 19,6 17,1 29 16 - - WSW 1018,8 28 0,0
14.08.2018 15:00:00 19,9 16,8 24 13 - - WSW 1018,8 30 0,0
14.08.2018 14:00:00 19,9 17,4 21 11 - - SW 1018,9 29 0,0
14.08.2018 13:00:00 20,0 17,7 24 13 - - WSW 1018,8 18 0,0
14.08.2018 12:00:00 19,3 16,7 26 14 - - WSW 1018,4 15 0,0
14.08.2018 11:00:00 18,7 16,2 21 11 - - W 1018,5 17 0,0
14.08.2018 10:00:00 18,6 15,7 18 10 - - W 1017,9 30 0,0
14.08.2018 09:00:00 17,6 15,6 21 11 - - W 1017,7 22 0,0
14.08.2018 08:00:00 17,4 15,7 16 9 - - WNW 1017,3 27 0,0
14.08.2018 07:00:00 17,0 15,7 18 10 - - W 1016,9 35 0,0
14.08.2018 06:00:00 16,6 15,3 18 10 - - W 1016,3 30 0,0
14.08.2018 05:00:00 16,6 14,9 28 15 - - WNW 1015,9 40 0,0
14.08.2018 04:00:00 16,5 15,0 22 12 - - WNW 1015,5 35 0,0
14.08.2018 03:00:00 16,5 14,7 21 11 - - NW 1015,1 30 0,0
14.08.2018 02:00:00 16,7 14,8 26 14 - - NW 1015,0 35 0,0
14.08.2018 01:00:00 16,7 14,7 26 14 - - NW 1014,5 30 0,0
14.08.2018 00:00:00 17,1 14,7 29 16 - - NW 1014,0 23 0,0
13.08.2018 23:00:00 17,6 15,3 28 15 - - WNW 1013,6 21 0,0
13.08.2018 22:00:00 18,1 15,2 22 12 - - NW 1013,1 45 0,0
13.08.2018 21:00:00 18,5 15,4 21 11 - - NW 1012,4 35 0,0
13.08.2018 20:00:00 19,2 14,8 24 13 - - NW 1011,3 35 0,0
13.08.2018 19:00:00 19,2 16,1 21 11 - - WNW 1010,6 30 0,0
13.08.2018 18:00:00 19,7 16,1 29 16 - - W 1010,2 25 0,0
13.08.2018 17:00:00 20,4 16,2 31 17 - - W 1009,6 40 0,0
13.08.2018 16:00:00 19,5 16,7 31 17 - - WSW 1009,5 26 0,0
13.08.2018 15:00:00 19,6 16,2 29 16 - - WSW 1009,7 26 0,0
13.08.2018 14:00:00 20,1 16,4 28 15 - - WSW 1009,7 40 0,0
13.08.2018 13:00:00 18,2 15,4 26 14 - - W 1009,4 35 0,0
13.08.2018 12:00:00 18,7 15,2 22 12 - - W 1009,4 25 0,0
13.08.2018 11:00:00 18,1 15,4 21 11 - - W 1009,0 30 0,0
13.08.2018 10:00:00 17,5 15,0 24 13 - - WNW 1008,6 27 0,0
13.08.2018 09:00:00 17,1 15,1 26 14 - - WNW 1008,1 40 0,0
13.08.2018 08:00:00 16,6 15,3 24 13 - - W 1007,7 35 0,0
13.08.2018 07:00:00 16,4 14,9 22 12 - - WNW 1007,0 45 0,0
13.08.2018 06:00:00 16,4 14,8 24 13 - - W 1006,5 50 0,0
13.08.2018 05:00:00 16,4 15,1 18 10 - - W 1006,2 50 0,0
13.08.2018 04:00:00 16,2 15,3 21 11 - - W 1006,0 40 0,0
13.08.2018 03:00:00 16,1 15,3 21 11 - - W 1006,2 35 0,0
13.08.2018 02:00:00 15,9 15,2 21 11 - - W 1006,5 40 0,0
13.08.2018 01:00:00 16,2 15,1 18 10 - - W 1006,8 28 0,0
13.08.2018 00:00:00 16,4 15,7 21 11 - - WSW 1006,9 19 0,0
12.08.2018 23:00:00 16,4 15,7 22 12 - - WSW 1007,1 16 0,2
12.08.2018 22:00:00 16,2 15,5 16 9 - - W 1007,0 20 0,0
12.08.2018 21:00:00 16,8 16,4 22 12 - - WSW 1007,0 10 0,0
12.08.2018 20:00:00 16,8 16,0 18 10 - - SW 1007,1 15 0,0
12.08.2018 19:00:00 17,5 16,0 18 10 - - SSW 1007,3 16 0,0
12.08.2018 18:00:00 17,4 16,2 22 12 - - S 1007,6 16 0,0
12.08.2018 17:00:00 16,7 16,3 24 13 - - S 1008,1 10 0,0
12.08.2018 16:00:00 16,7 16,2 18 10 - - S 1008,5 8 0,0
12.08.2018 15:00:00 16,9 16,1 31 17 48 26 S 1008,9 7 0,0
12.08.2018 14:00:00 17,2 15,6 34 18 46 25 S 1009,2 11 0,0
12.08.2018 13:00:00 16,5 14,7 34 18 48 26 S 1009,3 14 0,0
12.08.2018 12:00:00 15,4 14,5 35 19 52 28 S 1010,1 9 0,6
12.08.2018 11:00:00 16,5 16,1 29 16 - - S 1010,5 6 0,8
12.08.2018 10:00:00 16,3 15,5 29 16 - - SSW 1010,9 9 0,8
12.08.2018 09:00:00 16,3 15,5 22 12 - - S 1011,0 13 0,4
12.08.2018 08:00:00 16,4 15,6 29 16 50 27 S 1011,5 10 0,4
12.08.2018 07:00:00 16,5 14,8 34 18 48 26 S 1011,8 21 0,0
12.08.2018 06:00:00 16,2 15,4 22 12 - - S 1012,3 10 3,2
12.08.2018 05:00:00 15,9 14,3 31 17 - - SSW 1013,0 20 0,0
12.08.2018 04:00:00 16,2 15,5 22 12 - - SSW 1013,8 12 1,0
12.08.2018 03:00:00 16,4 15,1 24 13 - - SW 1014,6 7 1,8
12.08.2018 02:00:00 17,5 14,6 21 11 - - S 1015,2 16 0,0
12.08.2018 01:00:00 17,5 14,8 21 11 - - S 1015,9 17 0,0
12.08.2018 00:00:00 17,5 14,7 21 11 - - S 1016,6 18 0,0
11.08.2018 23:00:00 17,5 14,9 16 9 - - S 1017,5 28 0,0
11.08.2018 22:00:00 17,6 14,9 21 11 - - S 1018,1 28 0,0
11.08.2018 21:00:00 17,4 15,2 15 8 - - S 1018,4 24 0,0
11.08.2018 20:00:00 17,5 15,6 18 10 - - S 1019,0 20 0,0
11.08.2018 19:00:00 17,5 15,6 18 10 - - S 1019,5 22 0,0
11.08.2018 18:00:00 17,1 15,5 18 10 - - S 1020,2 23 0,0
11.08.2018 17:00:00 16,5 15,1 16 9 - - S 1020,5 27 0,2
11.08.2018 16:00:00 16,2 15,5 18 10 - - S 1021,1 5 0,2
11.08.2018 15:00:00 16,7 14,4 26 14 - - SSW 1021,9 24 0,0
11.08.2018 14:00:00 17,8 15,3 26 14 - - SSW 1022,1 23 0,0
11.08.2018 13:00:00 17,0 16,4 21 11 - - S 1022,4 13 0,2
11.08.2018 12:00:00 16,1 15,6 16 9 - - S 1022,7 14 0,2
11.08.2018 11:00:00 15,4 15,0 18 10 - - SE 1023,0 5 0,0
11.08.2018 10:00:00 16,5 13,9 16 9 - - SSE 1023,1 21 0,0
11.08.2018 09:00:00 15,8 12,1 18 10 - - S 1023,5 45 0,0
11.08.2018 08:00:00 16,3 10,7 8 4 - - SE 1023,3 50 0,0
11.08.2018 07:00:00 15,8 10,9 5 3 - - E 1023,2 40 0,0
11.08.2018 06:00:00 13,7 9,9 4 2 - - NE 1023,3 40 0,0
11.08.2018 05:00:00 13,6 9,7 5 3 - - NNW 1023,2 45 0,0
11.08.2018 04:00:00 15,0 8,7 11 6 - - WNW 1023,0 45 0,0
11.08.2018 03:00:00 15,1 9,8 16 9 - - NW 1023,1 50 0,0
11.08.2018 02:00:00 15,5 9,3 21 11 - - WNW 1023,1 45 0,0
11.08.2018 01:00:00 15,5 9,6 21 11 - - WNW 1023,0 45 0,0
11.08.2018 00:00:00 15,6 10,0 18 10 - - NW 1023,0 50 0,0
10.08.2018 23:00:00 15,6 10,8 22 12 - - NW 1022,6 40 0,0
10.08.2018 22:00:00 16,7 10,3 26 14 - - NW 1021,8 45 0,0
10.08.2018 21:00:00 17,0 10,2 28 15 - - NW 1021,0 35 0,0
10.08.2018 20:00:00 17,6 11,2 28 15 - - NW 1020,3 40 0,0

tt = Température de l'air
td = dewpoint
ff = Vitesse du vent
fx = gusts
dd = Direction du vent
ppp = reduced air pressure
vv = visibility
rr = Quantités de précipitations

stations d'obs. à proximité